Tracking 28794 objects as of 19-Apr-2024
HD Live streaming from Space Station
objects crossing your sky now

FLOCK 1C 1

Track FLOCK 1C 1 now!
10-day predictions
FLOCK 1C 1 is classified as:


NORAD ID: 40027
Int'l Code: 2014-033T
Perigee: 532.2 km
Apogee: 542.6 km
Inclination: 98.1 °
Period: 95.2 minutes
Semi major axis: 6908 km
RCS: Unknown
Launch date: June 19, 2014
Source: United States (US)
Launch site: Orenburg, Russia (OREN)
Your satellite tracking list
Your tracking list is empty




NASA's NSSDC Master Catalog

Two Line Element Set (TLE):
1 40027U 14033T   24110.40891874  .00052286  00000-0  30323-2 0  9999
2 40027  98.0905  90.8928 0007575 351.0628   9.0465 15.11944868534701
Source of the keplerian elements: AFSPC